Time,TemperatureF,DewpointF,PressureIn,WindDirection,WindDirectionDegrees,WindSpeedMPH,WindSpeedGustMPH,Humidity,HourlyPrecipIn,Conditions,Clouds,dailyrainin,SoftwareType,DateUTC
2014-10-20 00:02:00,59.5,49.0,29.68,SW,217,0.0,4.7,68,0.08,,---,0.00,VWS V14.00,2014-10-20 07:02:00,
2014-10-20 00:07:00,59.5,49.4,29.68,South,182,0.0,4.7,69,0.08,,---,0.04,VWS V14.00,2014-10-20 07:07:00,
2014-10-20 00:12:00,59.4,49.2,29.68,South,169,0.0,4.0,69,0.08,,---,0.04,VWS V14.00,2014-10-20 07:12:00,
2014-10-20 00:17:00,59.2,49.0,29.68,SSW,211,3.1,4.5,69,0.16,,---,0.08,VWS V14.00,2014-10-20 07:17:00,
2014-10-20 00:22:00,59.2,49.4,29.68,WSW,244,0.0,5.1,70,0.16,,---,0.08,VWS V14.00,2014-10-20 07:22:00,
2014-10-20 00:27:00,59.0,49.2,29.68,WNW,287,0.0,5.1,70,0.16,,---,0.08,VWS V14.00,2014-10-20 07:27:00,
2014-10-20 00:32:00,58.8,49.5,29.68,WSW,252,0.0,4.5,71,0.20,,---,0.12,VWS V14.00,2014-10-20 07:32:00,
2014-10-20 00:37:00,58.8,49.5,29.68,West,262,3.1,4.7,71,0.20,,---,0.12,VWS V14.00,2014-10-20 07:37:00,
2014-10-20 00:42:00,58.8,49.8,29.68,South,174,5.6,6.0,72,0.20,,---,0.16,VWS V14.00,2014-10-20 07:42:00,
2014-10-20 00:47:00,58.8,50.2,29.68,SSW,197,5.6,8.7,73,0.20,,---,0.16,VWS V14.00,2014-10-20 07:47:00,
2014-10-20 00:52:00,58.8,50.6,29.68,SW,226,0.0,8.7,74,0.20,,---,0.16,VWS V14.00,2014-10-20 07:52:00,
2014-10-20 00:57:00,58.6,50.4,29.68,SW,216,0.0,6.0,74,0.20,,---,0.20,VWS V14.00,2014-10-20 07:57:00,
2014-10-20 01:02:00,58.6,50.4,29.68,SW,216,3.1,5.6,74,0.20,,---,0.20,VWS V14.00,2014-10-20 08:02:00,
2014-10-20 01:07:00,58.6,50.4,29.71,SE,137,2.7,6.0,74,0.20,,---,0.20,VWS V14.00,2014-10-20 08:07:00,
2014-10-20 01:12:00,58.5,50.6,29.71,South,183,3.1,6.0,75,0.20,,---,0.24,VWS V14.00,2014-10-20 08:12:00,
2014-10-20 01:17:00,58.5,50.6,29.71,South,185,0.0,7.4,75,0.20,,---,0.24,VWS V14.00,2014-10-20 08:17:00,
2014-10-20 01:22:00,58.5,50.9,29.68,SW,222,4.5,7.4,76,0.20,,---,0.24,VWS V14.00,2014-10-20 08:22:00,
2014-10-20 01:27:00,58.5,50.9,29.68,SSW,207,0.0,5.1,76,0.20,,---,0.24,VWS V14.00,2014-10-20 08:27:00,
2014-10-20 01:32:00,58.5,50.9,29.68,SW,225,0.0,4.7,76,0.20,,---,0.24,VWS V14.00,2014-10-20 08:32:00,
2014-10-20 01:37:00,58.3,50.4,29.71,SW,225,0.0,0.0,75,0.20,,---,0.24,VWS V14.00,2014-10-20 08:37:00,
2014-10-20 01:42:00,58.3,50.4,29.71,SW,225,0.0,0.0,75,0.20,,---,0.24,VWS V14.00,2014-10-20 08:42:00,
2014-10-20 01:47:00,58.1,50.2,29.71,SW,225,0.0,0.0,75,0.20,,---,0.24,VWS V14.00,2014-10-20 08:47:00,
2014-10-20 01:52:00,58.1,50.2,29.68,SW,225,0.0,0.0,75,0.20,,---,0.24,VWS V14.00,2014-10-20 08:52:00,
2014-10-20 01:57:00,58.1,50.2,29.68,SE,138,2.7,4.5,75,0.20,,---,0.24,VWS V14.00,2014-10-20 08:57:00,
2014-10-20 02:02:00,58.1,50.6,29.68,SE,129,0.0,4.5,76,0.20,,---,0.24,VWS V14.00,2014-10-20 09:02:00,
2014-10-20 02:07:00,58.1,50.6,29.68,ESE,107,4.0,4.7,76,0.08,,---,0.28,VWS V14.00,2014-10-20 09:07:00,
2014-10-20 02:12:00,58.3,50.8,29.68,ESE,120,0.0,5.1,76,0.08,,---,0.28,VWS V14.00,2014-10-20 09:12:00,
2014-10-20 02:17:00,58.3,50.8,29.68,SSE,156,5.1,5.1,76,0.08,,---,0.28,VWS V14.00,2014-10-20 09:17:00,
2014-10-20 02:22:00,58.5,51.3,29.68,South,175,0.0,5.6,77,0.08,,---,0.28,VWS V14.00,2014-10-20 09:22:00,
2014-10-20 02:27:00,58.5,51.3,29.68,South,177,4.0,5.6,77,0.08,,---,0.28,VWS V14.00,2014-10-20 09:27:00,
2014-10-20 02:32:00,58.5,51.3,29.68,SE,140,0.0,4.7,77,0.08,,---,0.28,VWS V14.00,2014-10-20 09:32:00,
2014-10-20 02:37:00,58.5,51.3,29.68,South,190,4.0,4.7,77,0.08,,---,0.28,VWS V14.00,2014-10-20 09:37:00,
2014-10-20 02:42:00,58.5,51.3,29.68,SSW,209,0.0,4.7,77,0.08,,---,0.28,VWS V14.00,2014-10-20 09:42:00,
2014-10-20 02:47:00,58.5,51.3,29.68,South,176,0.0,4.7,77,0.04,,---,0.31,VWS V14.00,2014-10-20 09:47:00,
2014-10-20 02:52:00,58.5,51.3,29.68,SW,215,4.5,4.7,77,0.04,,---,0.31,VWS V14.00,2014-10-20 09:52:00,
2014-10-20 02:57:00,58.6,51.8,29.68,SSE,167,0.0,8.7,78,0.04,,---,0.31,VWS V14.00,2014-10-20 09:57:00,
2014-10-20 03:02:00,58.6,51.8,29.68,SSE,163,3.1,8.7,78,0.04,,---,0.31,VWS V14.00,2014-10-20 10:02:00,
2014-10-20 03:07:00,58.8,52.0,29.68,SSW,206,2.7,6.9,78,0.04,,---,0.31,VWS V14.00,2014-10-20 10:07:00,
2014-10-20 03:12:00,58.6,51.8,29.68,SW,218,7.8,7.8,78,0.04,,---,0.31,VWS V14.00,2014-10-20 10:12:00,
2014-10-20 03:17:00,58.6,51.8,29.68,SSE,162,0.0,7.8,78,0.04,,---,0.31,VWS V14.00,2014-10-20 10:17:00,
2014-10-20 03:22:00,58.5,51.3,29.68,SSW,199,0.0,7.8,77,0.04,,---,0.31,VWS V14.00,2014-10-20 10:22:00,
2014-10-20 03:27:00,58.3,51.1,29.68,South,185,0.0,4.7,77,0.04,,---,0.31,VWS V14.00,2014-10-20 10:27:00,
2014-10-20 03:32:00,58.1,50.9,29.68,South,186,0.0,0.0,77,0.04,,---,0.31,VWS V14.00,2014-10-20 10:32:00,
2014-10-20 03:37:00,57.9,50.8,29.68,South,181,0.0,0.0,77,0.04,,---,0.31,VWS V14.00,2014-10-20 10:37:00,
2014-10-20 03:42:00,57.9,50.8,29.68,South,181,0.0,0.0,77,0.04,,---,0.31,VWS V14.00,2014-10-20 10:42:00,
2014-10-20 03:47:00,57.9,50.8,29.68,South,181,0.0,0.0,77,0.04,,---,0.31,VWS V14.00,2014-10-20 10:47:00,
2014-10-20 03:52:00,57.7,50.6,29.68,South,181,0.0,0.0,77,0.04,,---,0.31,VWS V14.00,2014-10-20 10:52:00,
2014-10-20 03:57:00,57.7,50.6,29.68,South,181,0.0,0.0,77,0.04,,---,0.31,VWS V14.00,2014-10-20 10:57:00,
2014-10-20 04:02:00,57.7,50.6,29.68,South,181,0.0,0.0,77,0.04,,---,0.31,VWS V14.00,2014-10-20 11:02:00,
2014-10-20 04:07:00,57.7,50.6,29.68,SSW,213,0.0,0.0,77,0.04,,---,0.31,VWS V14.00,2014-10-20 11:07:00,
2014-10-20 04:12:00,57.7,50.6,29.68,SSE,153,0.0,6.0,77,0.04,,---,0.31,VWS V14.00,2014-10-20 11:12:00,
2014-10-20 04:17:00,57.9,50.8,29.68,SSE,153,0.0,6.0,77,0.04,,---,0.31,VWS V14.00,2014-10-20 11:17:00,
2014-10-20 04:22:00,57.9,50.8,29.68,SSE,153,0.0,0.0,77,0.04,,---,0.31,VWS V14.00,2014-10-20 11:22:00,
2014-10-20 04:27:00,57.9,50.8,29.68,SSE,153,0.0,0.0,77,0.04,,---,0.31,VWS V14.00,2014-10-20 11:27:00,
2014-10-20 04:32:00,57.9,50.8,29.68,SSE,153,0.0,0.0,77,0.04,,---,0.31,VWS V14.00,2014-10-20 11:32:00,
2014-10-20 04:37:00,57.9,50.8,29.68,SSE,153,0.0,0.0,77,0.04,,---,0.31,VWS V14.00,2014-10-20 11:37:00,
2014-10-20 04:42:00,57.9,50.8,29.68,SSE,153,0.0,0.0,77,0.04,,---,0.31,VWS V14.00,2014-10-20 11:42:00,
2014-10-20 04:47:00,57.9,50.8,29.68,SSE,153,0.0,0.0,77,0.04,,---,0.31,VWS V14.00,2014-10-20 11:47:00,
2014-10-20 04:52:00,57.9,50.8,29.68,South,184,0.0,4.5,77,0.00,,---,0.31,VWS V14.00,2014-10-20 11:52:00,
2014-10-20 04:57:00,57.9,51.1,29.68,South,184,0.0,4.5,78,0.00,,---,0.31,VWS V14.00,2014-10-20 11:57:00,
2014-10-20 05:02:00,57.9,51.1,29.68,South,184,0.0,0.0,78,0.00,,---,0.31,VWS V14.00,2014-10-20 12:02:00,
2014-10-20 05:07:00,57.9,51.1,29.68,South,184,0.0,0.0,78,0.00,,---,0.31,VWS V14.00,2014-10-20 12:07:00,
2014-10-20 05:12:00,57.9,51.1,29.68,SSW,201,0.0,0.0,78,0.00,,---,0.31,VWS V14.00,2014-10-20 12:12:00,
2014-10-20 05:17:00,57.9,51.1,29.68,SSW,201,0.0,0.0,78,0.00,,---,0.31,VWS V14.00,2014-10-20 12:17:00,
2014-10-20 05:22:00,57.9,51.1,29.68,SSW,201,0.0,0.0,78,0.00,,---,0.31,VWS V14.00,2014-10-20 12:22:00,
2014-10-20 05:27:00,57.9,51.1,29.68,SSW,201,0.0,0.0,78,0.00,,---,0.31,VWS V14.00,2014-10-20 12:27:00,
2014-10-20 05:32:00,57.9,51.1,29.68,SW,231,0.0,0.0,78,0.00,,---,0.31,VWS V14.00,2014-10-20 12:32:00,
2014-10-20 05:37:00,57.9,51.1,29.68,SW,231,0.0,0.0,78,0.00,,---,0.31,VWS V14.00,2014-10-20 12:37:00,
2014-10-20 05:42:00,57.9,51.1,29.68,South,180,0.0,3.6,78,0.00,,---,0.31,VWS V14.00,2014-10-20 12:42:00,
2014-10-20 05:47:00,57.9,51.1,29.68,South,180,0.0,3.6,78,0.00,,---,0.31,VWS V14.00,2014-10-20 12:47:00,
2014-10-20 05:52:00,57.9,51.5,29.68,SSW,194,0.0,0.0,79,0.00,,---,0.31,VWS V14.00,2014-10-20 12:52:00,
2014-10-20 05:57:00,57.7,51.3,29.68,SSW,192,0.0,0.0,79,0.00,,---,0.31,VWS V14.00,2014-10-20 12:57:00,
2014-10-20 06:02:00,57.7,51.3,29.68,SSW,193,0.0,0.0,79,0.00,,---,0.31,VWS V14.00,2014-10-20 13:02:00,
2014-10-20 06:07:00,57.7,51.3,29.68,SW,224,0.0,0.0,79,0.00,,---,0.31,VWS V14.00,2014-10-20 13:07:00,
2014-10-20 06:12:00,57.7,51.3,29.68,SW,224,0.0,0.0,79,0.00,,---,0.31,VWS V14.00,2014-10-20 13:12:00,
2014-10-20 06:17:00,57.7,51.3,29.68,SSW,210,0.0,4.7,79,0.00,,---,0.31,VWS V14.00,2014-10-20 13:17:00,
2014-10-20 06:22:00,57.7,51.3,29.68,SSW,212,0.0,4.7,79,0.00,,---,0.31,VWS V14.00,2014-10-20 13:22:00,
2014-10-20 06:27:00,57.7,51.3,29.68,SW,221,0.0,4.0,79,0.00,,---,0.31,VWS V14.00,2014-10-20 13:27:00,
2014-10-20 06:32:00,57.7,51.3,29.68,WSW,237,0.0,4.0,79,0.00,,---,0.35,VWS V14.00,2014-10-20 13:32:00,
2014-10-20 06:37:00,57.7,51.6,29.68,SW,222,0.0,4.0,80,0.00,,---,0.35,VWS V14.00,2014-10-20 13:37:00,
2014-10-20 06:42:00,57.7,51.6,29.68,SW,222,0.0,3.6,80,0.00,,---,0.35,VWS V14.00,2014-10-20 13:42:00,
2014-10-20 06:47:00,57.7,51.6,29.68,SW,222,0.0,0.0,80,0.00,,---,0.35,VWS V14.00,2014-10-20 13:47:00,
2014-10-20 06:52:00,57.7,51.6,29.68,SSE,159,3.1,4.0,80,0.00,,---,0.35,VWS V14.00,2014-10-20 13:52:00,
2014-10-20 06:57:00,57.7,51.6,29.68,SW,223,0.0,4.5,80,0.00,,---,0.35,VWS V14.00,2014-10-20 13:57:00,
2014-10-20 07:02:00,57.7,51.6,29.68,SW,229,0.0,4.5,80,0.00,,---,0.35,VWS V14.00,2014-10-20 14:02:00,
2014-10-20 07:07:00,57.7,51.6,29.68,SW,229,0.0,0.0,80,0.00,,---,0.35,VWS V14.00,2014-10-20 14:07:00,
2014-10-20 07:12:00,57.6,51.5,29.68,WSW,254,0.0,2.7,80,0.00,,---,0.35,VWS V14.00,2014-10-20 14:12:00,
2014-10-20 07:17:00,57.6,51.5,29.68,WSW,257,0.0,2.7,80,0.00,,---,0.35,VWS V14.00,2014-10-20 14:17:00,
2014-10-20 07:22:00,57.6,51.5,29.68,WSW,257,0.0,0.0,80,0.00,,---,0.35,VWS V14.00,2014-10-20 14:22:00,
2014-10-20 07:27:00,57.6,51.5,29.68,WSW,257,0.0,0.0,80,0.00,,---,0.35,VWS V14.00,2014-10-20 14:27:00,
2014-10-20 07:32:00,57.6,51.5,29.68,WSW,257,0.0,0.0,80,0.00,,---,0.35,VWS V14.00,2014-10-20 14:32:00,
2014-10-20 07:37:00,57.6,51.5,29.68,WSW,257,0.0,0.0,80,0.00,,---,0.35,VWS V14.00,2014-10-20 14:37:00,
2014-10-20 07:42:00,57.6,51.5,29.68,WSW,257,0.0,0.0,80,0.00,,---,0.35,VWS V14.00,2014-10-20 14:42:00,
2014-10-20 07:47:00,57.6,51.5,29.68,WSW,257,0.0,0.0,80,0.00,,---,0.35,VWS V14.00,2014-10-20 14:47:00,
2014-10-20 07:52:00,57.6,51.5,29.68,West,267,0.0,0.0,80,0.00,,---,0.35,VWS V14.00,2014-10-20 14:52:00,
2014-10-20 07:57:00,57.6,51.5,29.68,West,267,0.0,0.0,80,0.00,,---,0.35,VWS V14.00,2014-10-20 14:57:00,
2014-10-20 08:02:00,57.6,51.5,29.68,NNW,337,0.0,0.0,80,0.00,,---,0.35,VWS V14.00,2014-10-20 15:02:00,
2014-10-20 08:07:00,57.4,51.3,29.68,NNW,337,0.0,0.0,80,0.00,,---,0.35,VWS V14.00,2014-10-20 15:07:00,
2014-10-20 08:12:00,57.4,51.3,29.68,NNW,329,0.0,0.0,80,0.00,,---,0.35,VWS V14.00,2014-10-20 15:12:00,
2014-10-20 08:17:00,57.2,51.1,29.68,NNE,16,0.0,4.5,80,0.00,,---,0.35,VWS V14.00,2014-10-20 15:17:00,
2014-10-20 08:22:00,57.0,51.3,29.68,NNE,15,0.0,4.5,81,0.00,,---,0.35,VWS V14.00,2014-10-20 15:22:00,
2014-10-20 08:27:00,56.8,51.1,29.68,NNE,15,0.0,4.0,81,0.00,,---,0.35,VWS V14.00,2014-10-20 15:27:00,
2014-10-20 08:32:00,56.8,51.1,29.68,NNE,17,0.0,4.5,81,0.00,,---,0.35,VWS V14.00,2014-10-20 15:32:00,
2014-10-20 08:37:00,56.7,50.9,29.68,NW,314,0.0,4.5,81,0.00,,---,0.39,VWS V14.00,2014-10-20 15:37:00,
2014-10-20 08:42:00,56.7,50.9,29.68,NNE,26,3.1,6.5,81,0.00,,---,0.39,VWS V14.00,2014-10-20 15:42:00,
2014-10-20 08:47:00,56.5,50.7,29.68,NNE,22,4.0,6.5,81,0.00,,---,0.39,VWS V14.00,2014-10-20 15:47:00,
2014-10-20 08:52:00,56.3,50.5,29.68,NNE,30,3.1,4.7,81,0.00,,---,0.39,VWS V14.00,2014-10-20 15:52:00,
2014-10-20 08:57:00,56.3,50.5,29.68,NNE,24,2.7,4.7,81,0.00,,---,0.39,VWS V14.00,2014-10-20 15:57:00,
2014-10-20 09:02:00,56.3,50.5,29.68,North,6,0.0,4.5,81,0.00,,---,0.39,VWS V14.00,2014-10-20 16:02:00,
2014-10-20 09:07:00,56.1,50.4,29.71,North,1,3.1,4.5,81,0.00,,---,0.43,VWS V14.00,2014-10-20 16:07:00,
2014-10-20 09:12:00,56.1,50.4,29.71,NNW,344,0.0,4.5,81,0.08,,---,0.43,VWS V14.00,2014-10-20 16:12:00,
2014-10-20 09:17:00,56.1,50.4,29.71,NNW,344,0.0,4.5,81,0.08,,---,0.43,VWS V14.00,2014-10-20 16:17:00,
2014-10-20 09:22:00,56.1,50.4,29.71,NNW,344,0.0,0.0,81,0.08,,---,0.43,VWS V14.00,2014-10-20 16:22:00,
2014-10-20 09:27:00,56.1,50.4,29.71,NNW,344,0.0,0.0,81,0.08,,---,0.43,VWS V14.00,2014-10-20 16:27:00,
2014-10-20 09:32:00,56.1,50.4,29.71,NNE,24,0.0,0.0,81,0.08,,---,0.43,VWS V14.00,2014-10-20 16:32:00,
2014-10-20 09:37:00,56.1,50.7,29.71,NE,43,0.0,0.0,82,0.08,,---,0.43,VWS V14.00,2014-10-20 16:37:00,
2014-10-20 09:42:00,56.1,50.7,29.71,NE,41,0.0,0.0,82,0.08,,---,0.43,VWS V14.00,2014-10-20 16:42:00,
2014-10-20 09:47:00,56.1,50.7,29.71,North,357,0.0,0.0,82,0.08,,---,0.43,VWS V14.00,2014-10-20 16:47:00,
2014-10-20 09:52:00,55.9,50.5,29.71,NNE,18,3.1,3.6,82,0.08,,---,0.47,VWS V14.00,2014-10-20 16:52:00,
2014-10-20 09:57:00,55.9,50.5,29.71,North,357,0.0,3.6,82,0.08,,---,0.47,VWS V14.00,2014-10-20 16:57:00,
2014-10-20 10:02:00,56.1,50.7,29.71,North,0,0.0,3.6,82,0.08,,---,0.47,VWS V14.00,2014-10-20 17:02:00,
2014-10-20 10:07:00,56.1,50.7,29.71,North,0,0.0,0.0,82,0.08,,---,0.47,VWS V14.00,2014-10-20 17:07:00,
2014-10-20 10:12:00,56.3,50.9,29.71,North,353,4.0,4.0,82,0.08,,---,0.47,VWS V14.00,2014-10-20 17:12:00,
2014-10-20 10:17:00,56.5,51.1,29.71,North,353,0.0,4.0,82,0.08,,---,0.47,VWS V14.00,2014-10-20 17:17:00,
2014-10-20 10:22:00,56.7,51.2,29.74,North,353,0.0,4.0,82,0.08,,---,0.47,VWS V14.00,2014-10-20 17:22:00,
2014-10-20 10:27:00,56.8,51.4,29.74,West,275,0.0,5.6,82,0.08,,---,0.47,VWS V14.00,2014-10-20 17:27:00,
2014-10-20 10:32:00,57.0,51.9,29.74,SSW,205,0.0,5.6,83,0.08,,---,0.47,VWS V14.00,2014-10-20 17:32:00,
2014-10-20 10:37:00,57.2,51.8,29.71,SSW,197,3.1,5.6,82,0.04,,---,0.55,VWS V14.00,2014-10-20 17:37:00,
2014-10-20 10:42:00,57.0,51.9,29.71,SSE,157,0.0,7.4,83,0.79,,---,0.59,VWS V14.00,2014-10-20 17:42:00,
2014-10-20 10:47:00,56.8,51.7,29.71,South,188,4.5,7.4,83,0.79,,---,0.59,VWS V14.00,2014-10-20 17:47:00,
2014-10-20 10:52:00,57.0,51.9,29.74,South,189,4.5,6.0,83,0.79,,---,0.59,VWS V14.00,2014-10-20 17:52:00,
2014-10-20 10:57:00,57.2,52.1,29.74,SSE,156,4.0,6.0,83,0.28,,---,0.67,VWS V14.00,2014-10-20 17:57:00,
2014-10-20 11:02:00,57.6,52.4,29.74,West,277,4.5,7.8,83,0.28,,---,0.67,VWS V14.00,2014-10-20 18:02:00,
2014-10-20 11:07:00,57.9,52.8,29.74,WSW,244,0.0,7.8,83,0.28,,---,0.67,VWS V14.00,2014-10-20 18:07:00,
2014-10-20 11:12:00,58.3,53.2,29.74,WSW,241,3.6,6.0,83,0.28,,---,0.67,VWS V14.00,2014-10-20 18:12:00,
2014-10-20 11:17:00,58.5,53.7,29.74,South,191,4.0,5.1,84,0.28,,---,0.67,VWS V14.00,2014-10-20 18:17:00,
2014-10-20 11:22:00,58.5,53.7,29.74,SSW,195,0.0,4.7,84,0.28,,---,0.67,VWS V14.00,2014-10-20 18:22:00,
2014-10-20 11:27:00,58.5,53.7,29.74,SSW,192,2.7,6.5,84,0.28,,---,0.67,VWS V14.00,2014-10-20 18:27:00,
2014-10-20 11:32:00,58.3,53.2,29.74,South,179,4.0,6.9,83,0.28,,---,0.67,VWS V14.00,2014-10-20 18:32:00,
2014-10-20 11:37:00,58.3,53.5,29.74,SW,231,0.0,6.9,84,0.28,,---,0.67,VWS V14.00,2014-10-20 18:37:00,
2014-10-20 11:42:00,58.3,53.5,29.74,SE,124,4.0,4.7,84,0.28,,---,0.67,VWS V14.00,2014-10-20 18:42:00,
2014-10-20 11:47:00,58.3,53.5,29.74,SW,216,4.7,7.8,84,0.28,,---,0.67,VWS V14.00,2014-10-20 18:47:00,
2014-10-20 11:52:00,58.1,53.0,29.74,SW,218,3.6,8.7,83,0.28,,---,0.67,VWS V14.00,2014-10-20 18:52:00,
2014-10-20 11:57:00,57.9,52.8,29.74,South,188,0.0,8.7,83,0.28,,---,0.67,VWS V14.00,2014-10-20 18:57:00,
2014-10-20 12:02:00,57.9,52.8,29.74,SSW,197,2.7,6.0,83,0.28,,---,0.67,VWS V14.00,2014-10-20 19:02:00,
2014-10-20 12:07:00,57.7,52.6,29.74,South,180,0.0,6.0,83,0.28,,---,0.67,VWS V14.00,2014-10-20 19:07:00,
2014-10-20 12:12:00,57.6,52.4,29.74,WSW,257,3.1,5.1,83,0.28,,---,0.67,VWS V14.00,2014-10-20 19:12:00,
2014-10-20 12:17:00,57.6,52.4,29.74,SSE,156,0.0,5.1,83,0.28,,---,0.67,VWS V14.00,2014-10-20 19:17:00,
2014-10-20 12:22:00,57.6,52.4,29.74,South,188,6.0,7.4,83,0.28,,---,0.71,VWS V14.00,2014-10-20 19:22:00,
2014-10-20 12:27:00,57.4,52.3,29.74,SE,145,0.0,7.4,83,0.04,,---,0.71,VWS V14.00,2014-10-20 19:27:00,
2014-10-20 12:32:00,57.4,52.3,29.74,WSW,247,3.6,6.0,83,0.04,,---,0.75,VWS V14.00,2014-10-20 19:32:00,
2014-10-20 12:37:00,57.4,52.3,29.74,SW,231,0.0,5.1,83,0.91,,---,0.83,VWS V14.00,2014-10-20 19:37:00,
2014-10-20 12:42:00,57.2,52.1,29.74,SE,129,0.0,4.5,83,0.71,,---,0.87,VWS V14.00,2014-10-20 19:42:00,
2014-10-20 12:47:00,57.2,52.1,29.74,SSW,200,0.0,4.5,83,0.71,,---,0.91,VWS V14.00,2014-10-20 19:47:00,
2014-10-20 12:52:00,57.2,52.4,29.74,West,277,3.1,4.5,84,0.51,,---,0.91,VWS V14.00,2014-10-20 19:52:00,
2014-10-20 12:57:00,57.4,52.6,29.74,NW,319,0.0,4.0,84,0.51,,---,0.91,VWS V14.00,2014-10-20 19:57:00,
2014-10-20 13:02:00,57.6,52.8,29.74,NW,317,0.0,3.6,84,0.51,,---,0.91,VWS V14.00,2014-10-20 20:02:00,
2014-10-20 13:07:00,57.9,53.1,29.74,SSW,210,4.7,4.7,84,0.20,,---,0.94,VWS V14.00,2014-10-20 20:07:00,
2014-10-20 13:12:00,57.9,53.1,29.74,West,262,4.0,5.6,84,0.20,,---,0.94,VWS V14.00,2014-10-20 20:12:00,
2014-10-20 13:17:00,58.1,53.3,29.74,West,263,0.0,5.6,84,0.20,,---,0.94,VWS V14.00,2014-10-20 20:17:00,
2014-10-20 13:22:00,58.3,53.5,29.74,SW,219,0.0,5.6,84,0.20,,---,0.94,VWS V14.00,2014-10-20 20:22:00,
2014-10-20 13:27:00,58.1,53.3,29.74,SW,220,0.0,5.6,84,0.20,,---,0.98,VWS V14.00,2014-10-20 20:27:00,
2014-10-20 13:32:00,57.9,53.1,29.74,WNW,289,0.0,5.6,84,0.12,,---,0.98,VWS V14.00,2014-10-20 20:32:00,
2014-10-20 13:37:00,57.9,53.1,29.74,West,268,0.0,4.5,84,0.12,,---,0.98,VWS V14.00,2014-10-20 20:37:00,
2014-10-20 13:42:00,57.9,53.1,29.74,West,271,0.0,4.5,84,0.12,,---,0.98,VWS V14.00,2014-10-20 20:42:00,
2014-10-20 13:47:00,57.9,53.1,29.74,NW,312,3.1,4.0,84,0.12,,---,0.98,VWS V14.00,2014-10-20 20:47:00,
2014-10-20 13:52:00,57.9,53.1,29.74,NNW,336,0.0,4.0,84,0.12,,---,0.98,VWS V14.00,2014-10-20 20:52:00,
2014-10-20 13:57:00,58.3,53.5,29.74,NNW,335,0.0,3.1,84,0.12,,---,0.98,VWS V14.00,2014-10-20 20:57:00,
2014-10-20 14:02:00,58.8,54.0,29.74,WSW,249,0.0,4.7,84,0.12,,---,0.98,VWS V14.00,2014-10-20 21:02:00,
2014-10-20 14:07:00,59.4,54.5,29.74,West,269,0.0,4.7,84,0.12,,---,0.98,VWS V14.00,2014-10-20 21:07:00,
2014-10-20 14:12:00,59.7,54.9,29.74,West,272,2.7,6.9,84,0.12,,---,0.98,VWS V14.00,2014-10-20 21:12:00,
2014-10-20 14:17:00,59.4,54.5,29.74,West,276,0.0,6.9,84,0.12,,---,0.98,VWS V14.00,2014-10-20 21:17:00,
2014-10-20 14:22:00,59.4,54.5,29.74,WNW,299,0.0,6.5,84,0.12,,---,0.98,VWS V14.00,2014-10-20 21:22:00,
2014-10-20 14:27:00,59.2,54.4,29.74,WNW,300,0.0,6.5,84,0.12,,---,0.98,VWS V14.00,2014-10-20 21:27:00,
2014-10-20 14:32:00,59.2,54.4,29.74,WNW,300,0.0,0.0,84,0.12,,---,0.98,VWS V14.00,2014-10-20 21:32:00,
2014-10-20 14:37:00,59.4,54.5,29.74,SW,230,0.0,3.6,84,0.12,,---,0.98,VWS V14.00,2014-10-20 21:37:00,
2014-10-20 14:42:00,59.2,54.4,29.74,WNW,284,0.0,5.6,84,0.12,,---,0.98,VWS V14.00,2014-10-20 21:42:00,
2014-10-20 14:47:00,59.2,54.4,29.74,WNW,283,0.0,5.6,84,0.12,,---,0.98,VWS V14.00,2014-10-20 21:47:00,
2014-10-20 14:52:00,59.2,54.4,29.74,WNW,283,0.0,4.5,84,0.12,,---,0.98,VWS V14.00,2014-10-20 21:52:00,
2014-10-20 14:57:00,59.2,54.4,29.74,WNW,283,0.0,0.0,84,0.12,,---,0.98,VWS V14.00,2014-10-20 21:57:00,
2014-10-20 15:02:00,59.4,54.5,29.74,SW,230,0.0,0.0,84,0.12,,---,0.98,VWS V14.00,2014-10-20 22:02:00,
2014-10-20 15:07:00,59.4,54.5,29.74,SW,230,0.0,0.0,84,0.12,,---,0.98,VWS V14.00,2014-10-20 22:07:00,
2014-10-20 15:12:00,59.4,54.5,29.74,SSW,213,0.0,5.6,84,0.12,,---,0.98,VWS V14.00,2014-10-20 22:12:00,
2014-10-20 15:17:00,59.2,54.0,29.74,WSW,246,0.0,5.6,83,0.12,,---,0.98,VWS V14.00,2014-10-20 22:17:00,
2014-10-20 15:22:00,59.0,53.8,29.74,WSW,250,0.0,4.5,83,0.12,,---,0.98,VWS V14.00,2014-10-20 22:22:00,
2014-10-20 15:27:00,59.0,53.8,29.74,WSW,250,0.0,0.0,83,0.12,,---,0.98,VWS V14.00,2014-10-20 22:27:00,
2014-10-20 15:32:00,58.8,54.0,29.74,WSW,250,0.0,0.0,84,0.12,,---,0.98,VWS V14.00,2014-10-20 22:32:00,
2014-10-20 15:37:00,58.8,54.0,29.74,WSW,250,0.0,0.0,84,0.00,,---,0.98,VWS V14.00,2014-10-20 22:37:00,
2014-10-20 15:42:00,58.8,54.0,29.74,SSE,159,3.1,3.6,84,0.00,,---,0.98,VWS V14.00,2014-10-20 22:42:00,
2014-10-20 15:47:00,59.0,53.8,29.74,SSE,159,0.0,3.6,83,0.00,,---,0.98,VWS V14.00,2014-10-20 22:47:00,
2014-10-20 15:52:00,59.2,54.0,29.74,SSE,159,0.0,3.6,83,0.00,,---,0.98,VWS V14.00,2014-10-20 22:52:00,
2014-10-20 15:57:00,59.2,54.0,29.74,SSE,160,0.0,0.0,83,0.00,,---,0.98,VWS V14.00,2014-10-20 22:57:00,
2014-10-20 16:02:00,59.4,54.2,29.74,SSE,159,0.0,0.0,83,0.00,,---,0.98,VWS V14.00,2014-10-20 23:02:00,
2014-10-20 16:07:00,59.5,54.4,29.74,SSE,159,0.0,0.0,83,0.00,,---,0.98,VWS V14.00,2014-10-20 23:07:00,
2014-10-20 16:12:00,59.5,54.4,29.74,SSE,159,0.0,0.0,83,0.00,,---,0.98,VWS V14.00,2014-10-20 23:12:00,
2014-10-20 16:17:00,59.7,54.6,29.74,SSE,159,0.0,0.0,83,0.00,,---,0.98,VWS V14.00,2014-10-20 23:17:00,
2014-10-20 16:22:00,59.7,54.6,29.74,SSE,159,0.0,0.0,83,0.00,,---,0.98,VWS V14.00,2014-10-20 23:22:00,
2014-10-20 16:27:00,59.5,54.4,29.74,SSE,159,0.0,0.0,83,0.00,,---,0.98,VWS V14.00,2014-10-20 23:27:00,